Time,TemperatureF,DewpointF,PressureIn,WindDirection,WindDirectionDegrees,WindSpeedMPH,WindSpeedGustMPH,Humidity,HourlyPrecipIn,Conditions,Clouds,dailyrainin,SolarRadiationWatts/m^2,SoftwareType,DateUTC
2013-08-26 00:01:00,78.7,71.3,29.77,South,188,16.0,16.0,78,0.00,,,0.00,0,Wunderground v.1.15,2013-08-26 05:01:00,
2013-08-26 00:06:00,78.7,71.3,29.77,SSW,204,12.0,16.0,78,0.00,,,0.00,0,Wunderground v.1.15,2013-08-26 05:06:00,
2013-08-26 00:11:00,78.6,71.2,29.77,SSW,192,12.0,12.0,78,0.00,,,0.00,0,Wunderground v.1.15,2013-08-26 05:11:00,
2013-08-26 00:17:00,78.4,71.3,29.77,South,174,11.0,18.0,79,0.00,,,0.00,0,Wunderground v.1.15,2013-08-26 05:17:00,
2013-08-26 00:22:00,78.2,71.2,29.77,SSW,192,9.0,12.0,79,0.00,,,0.00,0,Wunderground v.1.15,2013-08-26 05:22:00,
2013-08-26 00:27:00,78.0,71.0,29.77,South,183,12.0,15.0,79,0.00,,,0.00,0,Wunderground v.1.15,2013-08-26 05:27:00,
2013-08-26 00:32:00,78.1,71.1,29.78,SSW,193,12.0,13.0,79,0.00,,,0.00,0,Wunderground v.1.15,2013-08-26 05:32:00,
2013-08-26 00:37:00,78.1,71.1,29.78,SSW,199,15.0,15.0,79,0.00,,,0.00,0,Wunderground v.1.15,2013-08-26 05:37:00,
2013-08-26 00:42:00,77.9,70.9,29.78,South,187,13.0,13.0,79,0.00,,,0.00,0,Wunderground v.1.15,2013-08-26 05:42:00,
2013-08-26 00:48:00,77.8,70.8,29.78,South,184,10.0,13.0,79,0.00,,,0.00,0,Wunderground v.1.15,2013-08-26 05:48:00,
2013-08-26 00:53:00,77.6,70.6,29.77,South,184,11.0,12.0,79,0.00,,,0.00,0,Wunderground v.1.15,2013-08-26 05:53:00,
2013-08-26 00:58:00,77.6,70.6,29.78,SSW,192,10.0,13.0,79,0.00,,,0.00,0,Wunderground v.1.15,2013-08-26 05:58:00,
2013-08-26 01:04:00,77.4,70.4,29.77,South,189,15.0,16.0,79,0.00,,,0.00,0,Wunderground v.1.15,2013-08-26 06:04:00,
2013-08-26 01:09:00,77.2,70.2,29.78,SSW,192,11.0,16.0,79,0.00,,,0.00,0,Wunderground v.1.15,2013-08-26 06:09:00,
2013-08-26 01:14:00,77.1,70.5,29.78,South,182,11.0,12.0,80,0.00,,,0.00,0,Wunderground v.1.15,2013-08-26 06:14:00,
2013-08-26 01:20:00,76.7,70.1,29.78,South,179,11.0,11.0,80,0.00,,,0.00,0,Wunderground v.1.15,2013-08-26 06:20:00,
2013-08-26 01:25:00,76.6,70.3,29.78,South,173,12.0,16.0,81,0.00,,,0.00,0,Wunderground v.1.15,2013-08-26 06:25:00,
2013-08-26 01:30:00,76.6,70.3,29.78,South,186,10.0,12.0,81,0.00,,,0.00,0,Wunderground v.1.15,2013-08-26 06:30:00,
2013-08-26 01:35:00,76.3,70.0,29.78,South,180,14.0,14.0,81,0.00,,,0.00,0,Wunderground v.1.15,2013-08-26 06:35:00,
2013-08-26 01:40:00,76.2,69.9,29.78,South,189,11.0,11.0,81,0.00,,,0.00,0,Wunderground v.1.15,2013-08-26 06:40:00,
2013-08-26 01:46:00,76.2,69.9,29.78,South,185,11.0,15.0,81,0.00,,,0.00,0,Wunderground v.1.15,2013-08-26 06:46:00,
2013-08-26 01:51:00,76.2,69.9,29.78,South,190,12.0,12.0,81,0.00,,,0.00,0,Wunderground v.1.15,2013-08-26 06:51:00,
2013-08-26 01:57:00,75.9,69.6,29.78,South,177,12.0,13.0,81,0.00,,,0.00,0,Wunderground v.1.15,2013-08-26 06:57:00,
2013-08-26 02:02:00,75.9,69.6,29.78,South,177,12.0,15.0,81,0.00,,,0.00,0,Wunderground v.1.15,2013-08-26 07:02:00,
2013-08-26 02:07:00,75.9,69.6,29.78,South,175,8.0,15.0,81,0.00,,,0.00,0,Wunderground v.1.15,2013-08-26 07:07:00,
2013-08-26 02:12:00,75.9,69.3,29.78,South,185,11.0,14.0,80,0.00,,,0.00,0,Wunderground v.1.15,2013-08-26 07:12:00,
2013-08-26 02:17:00,75.8,69.6,29.78,South,186,12.0,18.0,81,0.00,,,0.00,0,Wunderground v.1.15,2013-08-26 07:17:00,
2013-08-26 02:22:00,75.9,69.3,29.78,South,182,13.0,14.0,80,0.00,,,0.00,0,Wunderground v.1.15,2013-08-26 07:22:00,
2013-08-26 02:27:00,75.8,69.2,29.78,South,174,8.0,17.0,80,0.00,,,0.00,0,Wunderground v.1.15,2013-08-26 07:27:00,
2013-08-26 02:32:00,75.8,69.2,29.78,South,169,11.0,15.0,80,0.00,,,0.00,0,Wunderground v.1.15,2013-08-26 07:32:00,
2013-08-26 02:37:00,75.8,68.8,29.78,South,188,9.0,15.0,79,0.00,,,0.00,0,Wunderground v.1.15,2013-08-26 07:37:00,
2013-08-26 02:42:00,75.9,68.9,29.78,South,171,14.0,15.0,79,0.00,,,0.00,0,Wunderground v.1.15,2013-08-26 07:42:00,
2013-08-26 02:47:00,76.0,68.6,29.78,SSW,196,12.0,16.0,78,0.00,,,0.00,0,Wunderground v.1.15,2013-08-26 07:47:00,
2013-08-26 02:52:00,76.1,68.7,29.77,South,190,11.0,17.0,78,0.00,,,0.00,0,Wunderground v.1.15,2013-08-26 07:52:00,
2013-08-26 02:57:00,76.0,68.3,29.77,SSW,209,12.0,17.0,77,0.00,,,0.00,0,Wunderground v.1.15,2013-08-26 07:57:00,
2013-08-26 03:02:00,75.8,68.4,29.77,South,178,15.0,21.0,78,0.00,,,0.00,0,Wunderground v.1.15,2013-08-26 08:02:00,
2013-08-26 03:07:00,75.7,68.4,29.77,SSE,167,12.0,21.0,78,0.00,,,0.00,0,Wunderground v.1.15,2013-08-26 08:07:00,
2013-08-26 03:12:00,75.7,68.4,29.77,SSW,194,10.0,17.0,78,0.00,,,0.00,0,Wunderground v.1.15,2013-08-26 08:12:00,
2013-08-26 03:17:00,75.9,68.2,29.77,SSW,198,14.0,19.0,77,0.00,,,0.00,0,Wunderground v.1.15,2013-08-26 08:17:00,
2013-08-26 03:22:00,75.9,68.2,29.77,SSW,207,10.0,17.0,77,0.00,,,0.00,0,Wunderground v.1.15,2013-08-26 08:22:00,
2013-08-26 03:27:00,75.7,68.0,29.77,South,184,14.0,19.0,77,0.00,,,0.00,0,Wunderground v.1.15,2013-08-26 08:27:00,
2013-08-26 03:32:00,75.6,67.9,29.77,South,190,13.0,18.0,77,0.00,,,0.00,0,Wunderground v.1.15,2013-08-26 08:32:00,
2013-08-26 03:37:00,75.7,68.0,29.78,SSW,200,10.0,21.0,77,0.00,,,0.00,0,Wunderground v.1.15,2013-08-26 08:37:00,
2013-08-26 03:43:00,75.8,67.7,29.78,SSW,196,11.0,16.0,76,0.00,,,0.00,0,Wunderground v.1.15,2013-08-26 08:43:00,
2013-08-26 03:48:00,75.8,67.7,29.78,South,186,13.0,18.0,76,0.00,,,0.00,0,Wunderground v.1.15,2013-08-26 08:48:00,
2013-08-26 03:53:00,75.7,67.6,29.77,South,190,15.0,18.0,76,0.00,,,0.00,0,Wunderground v.1.15,2013-08-26 08:53:00,
2013-08-26 03:58:00,75.6,67.5,29.77,SSW,192,16.0,18.0,76,0.00,,,0.00,0,Wunderground v.1.15,2013-08-26 08:58:00,
2013-08-26 04:02:00,75.8,67.7,29.77,South,184,15.0,18.0,76,0.00,,,0.00,0,Wunderground v.1.15,2013-08-26 09:02:00,
2013-08-26 04:08:00,75.8,67.7,29.77,South,191,19.0,19.0,76,0.00,,,0.00,0,Wunderground v.1.15,2013-08-26 09:08:00,
2013-08-26 04:12:00,75.8,67.7,29.77,SSW,202,15.0,17.0,76,0.00,,,0.00,0,Wunderground v.1.15,2013-08-26 09:12:00,
2013-08-26 04:17:00,75.8,67.3,29.77,SSW,198,9.0,18.0,75,0.00,,,0.00,0,Wunderground v.1.15,2013-08-26 09:17:00,
2013-08-26 04:22:00,75.8,67.3,29.77,South,178,12.0,17.0,75,0.00,,,0.00,0,Wunderground v.1.15,2013-08-26 09:22:00,
2013-08-26 04:27:00,75.8,67.3,29.77,South,188,11.0,19.0,75,0.00,,,0.00,0,Wunderground v.1.15,2013-08-26 09:27:00,
2013-08-26 04:32:00,75.7,67.2,29.77,South,191,15.0,21.0,75,0.00,,,0.00,0,Wunderground v.1.15,2013-08-26 09:32:00,
2013-08-26 04:37:00,75.5,67.4,29.77,SW,217,13.0,21.0,76,0.00,,,0.00,0,Wunderground v.1.15,2013-08-26 09:37:00,
2013-08-26 04:43:00,75.4,67.3,29.77,South,184,12.0,19.0,76,0.00,,,0.00,0,Wunderground v.1.15,2013-08-26 09:43:00,
2013-08-26 04:48:00,75.3,67.2,29.77,South,184,16.0,19.0,76,0.00,,,0.00,0,Wunderground v.1.15,2013-08-26 09:48:00,
2013-08-26 04:53:00,75.2,67.1,29.77,South,187,14.0,14.0,76,0.00,,,0.00,0,Wunderground v.1.15,2013-08-26 09:53:00,
2013-08-26 04:57:00,75.3,67.2,29.77,SSW,198,17.0,21.0,76,0.00,,,0.00,0,Wunderground v.1.15,2013-08-26 09:57:00,
2013-08-26 05:02:00,75.2,67.1,29.77,South,186,16.0,17.0,76,0.00,,,0.00,0,Wunderground v.1.15,2013-08-26 10:02:00,
2013-08-26 05:07:00,74.9,66.8,29.77,SSW,192,12.0,17.0,76,0.00,,,0.00,0,Wunderground v.1.15,2013-08-26 10:07:00,
2013-08-26 05:12:00,74.7,67.0,29.77,South,189,13.0,16.0,77,0.00,,,0.00,0,Wunderground v.1.15,2013-08-26 10:12:00,
2013-08-26 05:17:00,74.7,67.0,29.77,SSW,200,8.0,16.0,77,0.00,,,0.00,0,Wunderground v.1.15,2013-08-26 10:17:00,
2013-08-26 05:22:00,74.6,66.9,29.77,SSW,194,8.0,14.0,77,0.00,,,0.00,0,Wunderground v.1.15,2013-08-26 10:22:00,
2013-08-26 05:27:00,74.7,67.0,29.77,SW,216,9.0,17.0,77,0.00,,,0.00,0,Wunderground v.1.15,2013-08-26 10:27:00,
2013-08-26 05:32:00,74.6,66.9,29.77,SSW,212,8.0,14.0,77,0.00,,,0.00,0,Wunderground v.1.15,2013-08-26 10:32:00,
2013-08-26 05:37:00,74.4,66.7,29.77,SSW,202,10.0,15.0,77,0.00,,,0.00,0,Wunderground v.1.15,2013-08-26 10:37:00,
2013-08-26 05:43:00,74.4,66.7,29.77,SSW,196,11.0,16.0,77,0.00,,,0.00,0,Wunderground v.1.15,2013-08-26 10:43:00,
2013-08-26 05:48:00,74.4,66.7,29.77,South,180,13.0,20.0,77,0.00,,,0.00,0,Wunderground v.1.15,2013-08-26 10:48:00,
2013-08-26 05:52:00,74.3,66.6,29.77,SSW,204,9.0,15.0,77,0.00,,,0.00,0,Wunderground v.1.15,2013-08-26 10:52:00,
2013-08-26 05:57:00,74.2,66.5,29.77,SSE,162,14.0,15.0,77,0.00,,,0.00,0,Wunderground v.1.15,2013-08-26 10:57:00,
2013-08-26 06:02:00,74.1,66.4,29.77,South,188,14.0,14.0,77,0.00,,,0.00,0,Wunderground v.1.15,2013-08-26 11:02:00,
2013-08-26 06:07:00,73.8,66.5,29.77,South,184,10.0,16.0,78,0.00,,,0.00,0,Wunderground v.1.15,2013-08-26 11:07:00,
2013-08-26 06:12:00,73.5,66.6,29.77,SSW,211,8.0,13.0,79,0.00,,,0.00,0,Wunderground v.1.15,2013-08-26 11:12:00,
2013-08-26 06:17:00,73.5,66.6,29.77,SSW,202,7.0,17.0,79,0.00,,,0.00,0,Wunderground v.1.15,2013-08-26 11:17:00,
2013-08-26 06:22:00,73.4,66.5,29.77,South,188,8.0,15.0,79,0.00,,,0.00,0,Wunderground v.1.15,2013-08-26 11:22:00,
2013-08-26 06:27:00,73.3,66.4,29.76,SSW,194,10.0,16.0,79,0.00,,,0.00,0,Wunderground v.1.15,2013-08-26 11:27:00,
2013-08-26 06:32:00,73.1,66.6,29.77,South,189,9.0,14.0,80,0.00,,,0.00,0,Wunderground v.1.15,2013-08-26 11:32:00,
2013-08-26 06:37:00,73.1,66.2,29.76,South,188,11.0,16.0,79,0.00,,,0.00,0,Wunderground v.1.15,2013-08-26 11:37:00,
2013-08-26 06:42:00,72.9,66.4,29.77,South,190,12.0,14.0,80,0.00,,,0.00,0,Wunderground v.1.15,2013-08-26 11:42:00,
2013-08-26 06:48:00,72.7,66.5,29.77,SSW,195,7.0,14.0,81,0.00,,,0.00,0,Wunderground v.1.15,2013-08-26 11:48:00,
2013-08-26 06:53:00,72.5,66.3,29.77,South,191,10.0,15.0,81,0.00,,,0.00,5,Wunderground v.1.15,2013-08-26 11:53:00,
2013-08-26 06:57:00,72.2,66.4,29.77,SSW,202,7.0,15.0,82,0.00,,,0.00,9,Wunderground v.1.15,2013-08-26 11:57:00,
2013-08-26 07:02:00,72.1,66.3,29.77,SSW,196,9.0,13.0,82,0.00,,,0.00,14,Wunderground v.1.15,2013-08-26 12:02:00,
2013-08-26 07:07:00,72.0,66.2,29.77,SSW,194,7.0,14.0,82,0.00,,,0.00,19,Wunderground v.1.15,2013-08-26 12:07:00,
2013-08-26 07:12:00,71.8,66.4,29.78,SSW,194,7.0,11.0,83,0.00,,,0.00,25,Wunderground v.1.15,2013-08-26 12:12:00,
2013-08-26 07:17:00,71.7,66.3,29.77,South,188,9.0,13.0,83,0.00,,,0.00,32,Wunderground v.1.15,2013-08-26 12:17:00,
2013-08-26 07:22:00,71.7,66.3,29.77,South,184,8.0,13.0,83,0.00,,,0.00,40,Wunderground v.1.15,2013-08-26 12:22:00,
2013-08-26 07:27:00,71.7,66.6,29.78,South,187,8.0,13.0,84,0.00,,,0.00,53,Wunderground v.1.15,2013-08-26 12:27:00,
2013-08-26 07:32:00,71.9,66.5,29.77,SSW,198,9.0,14.0,83,0.00,,,0.00,65,Wunderground v.1.15,2013-08-26 12:32:00,
2013-08-26 07:37:00,72.1,66.6,29.77,South,189,9.0,14.0,83,0.00,,,0.00,79,Wunderground v.1.15,2013-08-26 12:37:00,
2013-08-26 07:42:00,72.3,66.8,29.77,SSW,198,11.0,14.0,83,0.00,,,0.00,104,Wunderground v.1.15,2013-08-26 12:42:00,
2013-08-26 07:47:00,72.7,66.9,29.77,SSW,198,11.0,14.0,82,0.00,,,0.00,128,Wunderground v.1.15,2013-08-26 12:47:00,
2013-08-26 07:52:00,73.1,67.3,29.77,SSW,196,10.0,14.0,82,0.00,,,0.00,160,Wunderground v.1.15,2013-08-26 12:52:00,
2013-08-26 07:57:00,73.5,67.3,29.77,South,190,10.0,14.0,81,0.00,,,0.00,190,Wunderground v.1.15,2013-08-26 12:57:00,
2013-08-26 08:02:00,73.9,67.7,29.77,South,180,15.0,18.0,81,0.00,,,0.00,218,Wunderground v.1.15,2013-08-26 13:02:00,
2013-08-26 08:07:00,74.2,68.0,29.76,SSW,202,10.0,18.0,81,0.00,,,0.00,237,Wunderground v.1.15,2013-08-26 13:07:00,
2013-08-26 08:12:00,74.6,68.0,29.76,SW,217,15.0,16.0,80,0.00,,,0.00,251,Wunderground v.1.15,2013-08-26 13:12:00,
2013-08-26 08:17:00,74.9,67.9,29.77,SSW,199,11.0,21.0,79,0.00,,,0.00,269,Wunderground v.1.15,2013-08-26 13:17:00,
2013-08-26 08:22:00,75.2,68.2,29.76,SSW,196,14.0,17.0,79,0.00,,,0.00,279,Wunderground v.1.15,2013-08-26 13:22:00,
2013-08-26 08:27:00,75.4,68.1,29.76,SSW,199,10.0,20.0,78,0.00,,,0.00,292,Wunderground v.1.15,2013-08-26 13:27:00,
2013-08-26 08:32:00,75.6,68.3,29.76,SSW,202,14.0,21.0,78,0.00,,,0.00,244,Wunderground v.1.15,2013-08-26 13:32:00,
2013-08-26 08:37:00,75.4,67.7,29.76,SW,215,14.0,21.0,77,0.00,,,0.00,107,Wunderground v.1.15,2013-08-26 13:37:00,
2013-08-26 08:43:00,75.0,67.7,29.76,SW,235,3.0,18.0,78,0.00,,,0.00,116,Wunderground v.1.15,2013-08-26 13:43:00,
2013-08-26 08:48:00,74.7,67.8,29.76,South,188,15.0,18.0,79,0.00,,,0.00,63,Wunderground v.1.15,2013-08-26 13:48:00,
2013-08-26 08:53:00,74.5,67.6,29.76,SSW,197,15.0,17.0,79,0.00,,,0.00,58,Wunderground v.1.15,2013-08-26 13:53:00,
2013-08-26 08:58:00,74.2,67.3,29.76,SSW,210,9.0,18.0,79,0.00,,,0.00,72,Wunderground v.1.15,2013-08-26 13:58:00,
2013-08-26 09:03:00,74.1,67.5,29.76,South,186,17.0,17.0,80,0.00,,,0.00,97,Wunderground v.1.15,2013-08-26 14:03:00,
2013-08-26 09:08:00,74.3,67.7,29.76,SSW,198,13.0,17.0,80,0.00,,,0.00,120,Wunderground v.1.15,2013-08-26 14:08:00,
2013-08-26 09:13:00,74.7,68.1,29.76,SSW,201,10.0,17.0,80,0.00,,,0.00,362,Wunderground v.1.15,2013-08-26 14:13:00,
2013-08-26 09:18:00,75.2,68.2,29.76,SSW,212,12.0,17.0,79,0.00,,,0.00,371,Wunderground v.1.15,2013-08-26 14:18:00,
2013-08-26 09:23:00,75.7,68.7,29.76,SSW,207,9.0,17.0,79,0.00,,,0.00,304,Wunderground v.1.15,2013-08-26 14:23:00,
2013-08-26 09:28:00,76.0,68.6,29.76,South,189,15.0,17.0,78,0.00,,,0.00,413,Wunderground v.1.15,2013-08-26 14:28:00,
2013-08-26 09:33:00,76.5,68.7,29.76,SSW,207,9.0,18.0,77,0.00,,,0.00,429,Wunderground v.1.15,2013-08-26 14:33:00,
2013-08-26 09:38:00,77.0,69.2,29.76,SSW,198,16.0,18.0,77,0.00,,,0.00,443,Wunderground v.1.15,2013-08-26 14:38:00,
2013-08-26 09:43:00,77.5,69.7,29.76,South,180,7.0,17.0,77,0.00,,,0.00,457,Wunderground v.1.15,2013-08-26 14:43:00,
2013-08-26 09:48:00,77.9,69.7,29.75,SSW,204,10.0,18.0,76,0.00,,,0.00,475,Wunderground v.1.15,2013-08-26 14:48:00,
2013-08-26 09:53:00,78.3,69.7,29.75,South,184,13.0,21.0,75,0.00,,,0.00,489,Wunderground v.1.15,2013-08-26 14:53:00,
2013-08-26 09:58:00,78.5,69.1,29.75,SSW,209,12.0,22.0,73,0.00,,,0.00,503,Wunderground v.1.15,2013-08-26 14:58:00,
2013-08-26 10:03:00,78.9,69.9,29.75,SW,227,17.0,22.0,74,0.00,,,0.00,519,Wunderground v.1.15,2013-08-26 15:03:00,
2013-08-26 10:08:00,79.1,69.3,29.75,SW,219,12.0,22.0,72,0.00,,,0.00,534,Wunderground v.1.15,2013-08-26 15:08:00,
2013-08-26 10:13:00,79.3,69.9,29.75,South,182,15.0,20.0,73,0.00,,,0.00,547,Wunderground v.1.15,2013-08-26 15:13:00,
2013-08-26 10:18:00,79.7,70.7,29.75,South,190,15.0,20.0,74,0.00,,,0.00,563,Wunderground v.1.15,2013-08-26 15:18:00,
2013-08-26 10:23:00,79.6,69.8,29.75,SSW,200,14.0,20.0,72,0.00,,,0.00,573,Wunderground v.1.15,2013-08-26 15:23:00,
2013-08-26 10:28:00,79.8,70.0,29.75,SSW,211,18.0,22.0,72,0.00,,,0.00,589,Wunderground v.1.15,2013-08-26 15:28:00,
2013-08-26 10:33:00,80.0,70.2,29.75,SSW,192,18.0,22.0,72,0.00,,,0.00,603,Wunderground v.1.15,2013-08-26 15:33:00,
2013-08-26 10:38:00,80.1,69.8,29.75,SSW,211,8.0,22.0,71,0.00,,,0.00,619,Wunderground v.1.15,2013-08-26 15:38:00,
2013-08-26 10:43:00,80.4,70.5,29.75,South,190,12.0,17.0,72,0.00,,,0.00,633,Wunderground v.1.15,2013-08-26 15:43:00,
2013-08-26 10:48:00,80.9,71.0,29.75,SSW,202,12.0,17.0,72,0.00,,,0.00,649,Wunderground v.1.15,2013-08-26 15:48:00,
2013-08-26 10:53:00,81.2,71.3,29.75,SSW,210,14.0,19.0,72,0.00,,,0.00,661,Wunderground v.1.15,2013-08-26 15:53:00,
2013-08-26 10:58:00,81.3,70.6,29.75,SSW,192,20.0,20.0,70,0.00,,,0.00,675,Wunderground v.1.15,2013-08-26 15:58:00,
2013-08-26 11:03:00,81.4,71.1,29.74,SW,215,13.0,17.0,71,0.00,,,0.00,689,Wunderground v.1.15,2013-08-26 16:03:00,
2013-08-26 11:07:00,81.8,71.1,29.75,SSW,196,15.0,21.0,70,0.00,,,0.00,668,Wunderground v.1.15,2013-08-26 16:07:00,
2013-08-26 11:12:00,81.7,71.4,29.74,South,183,16.0,20.0,71,0.00,,,0.00,710,Wunderground v.1.15,2013-08-26 16:12:00,
2013-08-26 11:17:00,82.1,71.3,29.74,South,190,13.0,20.0,70,0.00,,,0.00,721,Wunderground v.1.15,2013-08-26 16:17:00,
2013-08-26 11:23:00,82.3,70.7,29.74,SSW,201,12.0,21.0,68,0.00,,,0.00,729,Wunderground v.1.15,2013-08-26 16:23:00,
2013-08-26 11:27:00,82.8,72.0,29.74,SSW,205,15.0,21.0,70,0.00,,,0.00,740,Wunderground v.1.15,2013-08-26 16:27:00,
2013-08-26 11:32:00,82.9,72.1,29.74,SSW,209,16.0,19.0,70,0.00,,,0.00,747,Wunderground v.1.15,2013-08-26 16:32:00,
2013-08-26 11:37:00,83.2,72.0,29.74,SSW,197,9.0,19.0,69,0.00,,,0.00,756,Wunderground v.1.15,2013-08-26 16:37:00,
2013-08-26 11:43:00,83.8,71.7,29.74,SSW,209,10.0,17.0,67,0.00,,,0.00,765,Wunderground v.1.15,2013-08-26 16:43:00,
2013-08-26 11:48:00,83.9,72.6,29.74,South,185,15.0,17.0,69,0.00,,,0.00,772,Wunderground v.1.15,2013-08-26 16:48:00,
2013-08-26 11:53:00,84.1,72.8,29.74,SSW,207,9.0,16.0,69,0.00,,,0.00,782,Wunderground v.1.15,2013-08-26 16:53:00,
2013-08-26 11:58:00,84.2,72.0,29.74,SSW,203,10.0,16.0,67,0.00,,,0.00,791,Wunderground v.1.15,2013-08-26 16:58:00,
2013-08-26 12:03:00,84.4,72.7,29.73,South,189,14.0,14.0,68,0.00,,,0.00,796,Wunderground v.1.15,2013-08-26 17:03:00,
2013-08-26 12:08:00,84.5,72.3,29.73,SSW,211,12.0,15.0,67,0.00,,,0.00,802,Wunderground v.1.15,2013-08-26 17:08:00,
2013-08-26 12:13:00,85.1,73.8,29.73,SSW,209,9.0,13.0,69,0.00,,,0.00,807,Wunderground v.1.15,2013-08-26 17:13:00,
2013-08-26 12:18:00,85.3,72.2,29.73,SSW,202,10.0,16.0,65,0.00,,,0.00,816,Wunderground v.1.15,2013-08-26 17:18:00,
2013-08-26 12:23:00,85.5,72.4,29.73,SSW,207,11.0,15.0,65,0.00,,,0.00,819,Wunderground v.1.15,2013-08-26 17:23:00,
2013-08-26 12:28:00,85.6,74.3,29.73,SW,227,12.0,16.0,69,0.00,,,0.00,824,Wunderground v.1.15,2013-08-26 17:28:00,
2013-08-26 12:33:00,85.9,73.2,29.72,South,188,9.0,15.0,66,0.00,,,0.00,831,Wunderground v.1.15,2013-08-26 17:33:00,
2013-08-26 12:38:00,86.0,72.4,29.72,SSW,196,11.0,19.0,64,0.00,,,0.00,835,Wunderground v.1.15,2013-08-26 17:38:00,
2013-08-26 12:43:00,86.3,72.7,29.72,SSW,203,14.0,17.0,64,0.00,,,0.00,842,Wunderground v.1.15,2013-08-26 17:43:00,
2013-08-26 12:48:00,86.5,72.9,29.72,SSW,204,6.0,19.0,64,0.00,,,0.00,846,Wunderground v.1.15,2013-08-26 17:48:00,
2013-08-26 12:53:00,87.0,73.3,29.72,South,186,11.0,18.0,64,0.00,,,0.00,846,Wunderground v.1.15,2013-08-26 17:53:00,
2013-08-26 12:58:00,87.0,73.8,29.71,SSW,213,12.0,18.0,65,0.00,,,0.00,853,Wunderground v.1.15,2013-08-26 17:58:00,
2013-08-26 13:03:00,87.2,72.6,29.71,South,191,14.0,18.0,62,0.00,,,0.00,856,Wunderground v.1.15,2013-08-26 18:03:00,
2013-08-26 13:08:00,87.1,72.0,29.71,SSW,209,10.0,18.0,61,0.00,,,0.00,856,Wunderground v.1.15,2013-08-26 18:08:00,
2013-08-26 13:13:00,87.6,73.0,29.71,SW,223,13.0,17.0,62,0.00,,,0.00,860,Wunderground v.1.15,2013-08-26 18:13:00,
2013-08-26 13:18:00,87.8,74.1,29.71,South,170,10.0,18.0,64,0.00,,,0.00,865,Wunderground v.1.15,2013-08-26 18:18:00,
2013-08-26 13:23:00,88.0,73.3,29.71,SSW,197,10.0,18.0,62,0.00,,,0.00,863,Wunderground v.1.15,2013-08-26 18:23:00,
2013-08-26 13:28:00,88.5,74.8,29.71,SSW,205,17.0,20.0,64,0.00,,,0.00,868,Wunderground v.1.15,2013-08-26 18:28:00,
2013-08-26 13:33:00,88.4,74.2,29.70,SSW,193,13.0,20.0,63,0.00,,,0.00,868,Wunderground v.1.15,2013-08-26 18:33:00,
2013-08-26 13:38:00,88.4,74.2,29.70,South,186,13.0,20.0,63,0.00,,,0.00,868,Wunderground v.1.15,2013-08-26 18:38:00,
2013-08-26 13:43:00,88.8,75.0,29.70,South,187,18.0,20.0,64,0.00,,,0.00,868,Wunderground v.1.15,2013-08-26 18:43:00,
2013-08-26 13:48:00,88.8,73.6,29.70,SW,223,10.0,21.0,61,0.00,,,0.00,868,Wunderground v.1.15,2013-08-26 18:48:00,
2013-08-26 13:53:00,88.8,73.1,29.70,South,191,13.0,19.0,60,0.00,,,0.00,868,Wunderground v.1.15,2013-08-26 18:53:00,
2013-08-26 13:58:00,89.3,74.6,29.70,South,179,12.0,22.0,62,0.00,,,0.00,865,Wunderground v.1.15,2013-08-26 18:58:00,
2013-08-26 14:03:00,89.4,73.7,29.70,SSW,194,15.0,22.0,60,0.00,,,0.00,861,Wunderground v.1.15,2013-08-26 19:03:00,
2013-08-26 14:08:00,89.7,74.9,29.70,South,184,9.0,22.0,62,0.00,,,0.00,861,Wunderground v.1.15,2013-08-26 19:08:00,
2013-08-26 14:13:00,89.7,73.5,29.70,South,191,19.0,22.0,59,0.00,,,0.00,860,Wunderground v.1.15,2013-08-26 19:13:00,
2013-08-26 14:18:00,89.8,73.6,29.70,SSW,200,12.0,23.0,59,0.00,,,0.00,854,Wunderground v.1.15,2013-08-26 19:18:00,
2013-08-26 14:23:00,90.3,75.5,29.70,SSW,206,13.0,17.0,62,0.00,,,0.00,853,Wunderground v.1.15,2013-08-26 19:23:00,
2013-08-26 14:28:00,90.6,75.8,29.69,South,182,16.0,20.0,62,0.00,,,0.00,851,Wunderground v.1.15,2013-08-26 19:28:00,
2013-08-26 14:33:00,90.5,74.2,29.69,South,187,18.0,21.0,59,0.00,,,0.00,842,Wunderground v.1.15,2013-08-26 19:33:00,
2013-08-26 14:38:00,90.5,74.2,29.69,SSW,197,15.0,23.0,59,0.00,,,0.00,844,Wunderground v.1.15,2013-08-26 19:38:00,
2013-08-26 14:43:00,90.5,73.7,29.70,SSW,198,12.0,21.0,58,0.00,,,0.00,821,Wunderground v.1.15,2013-08-26 19:43:00,
2013-08-26 14:48:00,90.5,73.2,29.69,SSW,194,16.0,21.0,57,0.00,,,0.00,773,Wunderground v.1.15,2013-08-26 19:48:00,
2013-08-26 14:53:00,91.1,74.8,29.69,SSW,197,12.0,19.0,59,0.00,,,0.00,796,Wunderground v.1.15,2013-08-26 19:53:00,
2013-08-26 14:58:00,90.7,72.8,29.69,SSW,204,18.0,20.0,56,0.00,,,0.00,788,Wunderground v.1.15,2013-08-26 19:58:00,
2013-08-26 15:03:00,90.8,72.9,29.69,SSW,208,15.0,24.0,56,0.00,,,0.00,795,Wunderground v.1.15,2013-08-26 20:03:00,
2013-08-26 15:08:00,90.9,74.1,29.69,South,172,16.0,24.0,58,0.00,,,0.00,752,Wunderground v.1.15,2013-08-26 20:08:00,
2013-08-26 15:13:00,91.3,74.4,29.69,South,182,12.0,19.0,58,0.00,,,0.00,684,Wunderground v.1.15,2013-08-26 20:13:00,
2013-08-26 15:18:00,91.4,74.5,29.69,South,188,18.0,21.0,58,0.00,,,0.00,777,Wunderground v.1.15,2013-08-26 20:18:00,
2013-08-26 15:23:00,91.4,74.5,29.68,South,182,14.0,22.0,58,0.00,,,0.00,779,Wunderground v.1.15,2013-08-26 20:23:00,
2013-08-26 15:28:00,91.7,74.3,29.69,SSW,209,12.0,22.0,57,0.00,,,0.00,773,Wunderground v.1.15,2013-08-26 20:28:00,
2013-08-26 15:33:00,91.4,73.0,29.68,SSW,196,14.0,19.0,55,0.00,,,0.00,761,Wunderground v.1.15,2013-08-26 20:33:00,
2013-08-26 15:38:00,91.7,74.8,29.68,SSW,192,18.0,21.0,58,0.00,,,0.00,752,Wunderground v.1.15,2013-08-26 20:38:00,
2013-08-26 15:43:00,91.8,74.4,29.68,South,190,15.0,19.0,57,0.00,,,0.00,744,Wunderground v.1.15,2013-08-26 20:43:00,
2013-08-26 15:48:00,91.5,74.6,29.68,South,181,15.0,22.0,58,0.00,,,0.00,731,Wunderground v.1.15,2013-08-26 20:48:00,
2013-08-26 15:53:00,91.5,73.6,29.68,SSE,167,13.0,22.0,56,0.00,,,0.00,724,Wunderground v.1.15,2013-08-26 20:53:00,
2013-08-26 15:58:00,92.0,74.6,29.68,South,185,11.0,24.0,57,0.00,,,0.00,714,Wunderground v.1.15,2013-08-26 20:58:00,
2013-08-26 16:03:00,92.0,75.6,29.68,SSW,213,7.0,20.0,59,0.00,,,0.00,707,Wunderground v.1.15,2013-08-26 21:03:00,
2013-08-26 16:08:00,91.8,74.4,29.68,SSW,199,16.0,21.0,57,0.00,,,0.00,691,Wunderground v.1.15,2013-08-26 21:08:00,
2013-08-26 16:13:00,91.7,74.3,29.68,SW,216,15.0,20.0,57,0.00,,,0.00,677,Wunderground v.1.15,2013-08-26 21:13:00,
2013-08-26 16:18:00,91.7,74.3,29.68,South,179,20.0,21.0,57,0.00,,,0.00,664,Wunderground v.1.15,2013-08-26 21:18:00,
2013-08-26 16:23:00,91.9,73.4,29.67,SSW,196,22.0,22.0,55,0.00,,,0.00,657,Wunderground v.1.15,2013-08-26 21:23:00,
2013-08-26 16:28:00,91.8,72.8,29.67,SSW,192,11.0,26.0,54,0.00,,,0.00,640,Wunderground v.1.15,2013-08-26 21:28:00,
2013-08-26 16:33:00,92.1,73.1,29.67,South,183,19.0,24.0,54,0.00,,,0.00,629,Wunderground v.1.15,2013-08-26 21:33:00,
2013-08-26 16:38:00,92.0,73.5,29.67,SSW,204,16.0,24.0,55,0.00,,,0.00,613,Wunderground v.1.15,2013-08-26 21:38:00,
2013-08-26 16:43:00,91.9,73.4,29.67,South,172,17.0,22.0,55,0.00,,,0.00,603,Wunderground v.1.15,2013-08-26 21:43:00,
2013-08-26 16:48:00,91.9,72.9,29.67,South,179,20.0,25.0,54,0.00,,,0.00,591,Wunderground v.1.15,2013-08-26 21:48:00,
2013-08-26 16:53:00,91.7,72.7,29.67,South,185,21.0,22.0,54,0.00,,,0.00,577,Wunderground v.1.15,2013-08-26 21:53:00,
2013-08-26 16:58:00,91.8,73.3,29.67,SSW,198,15.0,22.0,55,0.00,,,0.00,561,Wunderground v.1.15,2013-08-26 21:58:00,
2013-08-26 17:03:00,92.0,74.6,29.67,SSW,192,18.0,19.0,57,0.00,,,0.00,547,Wunderground v.1.15,2013-08-26 22:03:00,
2013-08-26 17:08:00,91.9,73.4,29.67,SSW,212,21.0,23.0,55,0.00,,,0.00,531,Wunderground v.1.15,2013-08-26 22:08:00,
2013-08-26 17:13:00,91.9,72.9,29.67,South,186,16.0,25.0,54,0.00,,,0.00,517,Wunderground v.1.15,2013-08-26 22:13:00,
2013-08-26 17:18:00,92.0,73.5,29.67,SSW,196,12.0,25.0,55,0.00,,,0.00,503,Wunderground v.1.15,2013-08-26 22:18:00,
2013-08-26 17:24:00,92.0,73.0,29.67,SSW,202,13.0,24.0,54,0.00,,,0.00,487,Wunderground v.1.15,2013-08-26 22:24:00,
2013-08-26 17:29:00,91.8,73.3,29.67,SSW,198,11.0,24.0,55,0.00,,,0.00,471,Wunderground v.1.15,2013-08-26 22:29:00,
2013-08-26 17:34:00,91.9,74.0,29.67,South,171,16.0,20.0,56,0.00,,,0.00,455,Wunderground v.1.15,2013-08-26 22:34:00,
2013-08-26 17:39:00,91.8,73.9,29.66,South,177,18.0,21.0,56,0.00,,,0.00,439,Wunderground v.1.15,2013-08-26 22:39:00,
2013-08-26 17:44:00,91.8,73.3,29.66,SSW,193,12.0,26.0,55,0.00,,,0.00,424,Wunderground v.1.15,2013-08-26 22:44:00,
2013-08-26 17:49:00,91.7,73.2,29.66,SSW,198,14.0,26.0,55,0.00,,,0.00,408,Wunderground v.1.15,2013-08-26 22:49:00,
2013-08-26 17:54:00,91.6,73.1,29.66,South,178,18.0,22.0,55,0.00,,,0.00,392,Wunderground v.1.15,2013-08-26 22:54:00,
2013-08-26 17:59:00,91.5,73.1,29.66,South,182,20.0,22.0,55,0.00,,,0.00,376,Wunderground v.1.15,2013-08-26 22:59:00,
2013-08-26 18:04:00,91.5,73.6,29.66,South,182,10.0,16.0,56,0.00,,,0.00,360,Wunderground v.1.15,2013-08-26 23:04:00,
2013-08-26 18:09:00,91.5,73.6,29.66,SSW,199,10.0,18.0,56,0.00,,,0.00,345,Wunderground v.1.15,2013-08-26 23:09:00,
2013-08-26 18:14:00,91.3,72.9,29.66,South,181,15.0,20.0,55,0.00,,,0.00,329,Wunderground v.1.15,2013-08-26 23:14:00,
2013-08-26 18:19:00,91.2,72.8,29.66,South,180,15.0,20.0,55,0.00,,,0.00,315,Wunderground v.1.15,2013-08-26 23:19:00,
2013-08-26 18:24:00,91.1,72.7,29.66,South,180,12.0,18.0,55,0.00,,,0.00,295,Wunderground v.1.15,2013-08-26 23:24:00,
2013-08-26 18:29:00,90.9,73.6,29.66,SSE,164,10.0,18.0,57,0.00,,,0.00,281,Wunderground v.1.15,2013-08-26 23:29:00,
2013-08-26 18:34:00,90.8,73.5,29.66,South,173,8.0,18.0,57,0.00,,,0.00,264,Wunderground v.1.15,2013-08-26 23:34:00,
2013-08-26 18:39:00,90.6,73.8,29.65,South,169,10.0,21.0,58,0.00,,,0.00,250,Wunderground v.1.15,2013-08-26 23:39:00,
2013-08-26 18:44:00,90.3,74.0,29.65,South,179,10.0,15.0,59,0.00,,,0.00,232,Wunderground v.1.15,2013-08-26 23:44:00,
2013-08-26 18:49:00,90.0,73.2,29.65,South,170,9.0,16.0,58,0.00,,,0.00,214,Wunderground v.1.15,2013-08-26 23:49:00,
2013-08-26 18:54:00,89.7,74.0,29.65,South,173,10.0,16.0,60,0.00,,,0.00,155,Wunderground v.1.15,2013-08-26 23:54:00,
2013-08-26 18:59:00,89.2,74.5,29.65,SSE,165,8.0,16.0,62,0.00,,,0.00,153,Wunderground v.1.15,2013-08-26 23:59:00,
2013-08-26 19:04:00,88.7,75.0,29.65,South,177,11.0,15.0,64,0.00,,,0.00,46,Wunderground v.1.15,2013-08-27 00:04:00,
2013-08-26 19:09:00,88.3,74.6,29.64,South,170,12.0,15.0,64,0.00,,,0.00,40,Wunderground v.1.15,2013-08-27 00:09:00,
2013-08-26 19:14:00,87.9,74.7,29.65,South,181,10.0,14.0,65,0.00,,,0.00,39,Wunderground v.1.15,2013-08-27 00:14:00,
2013-08-26 19:19:00,87.5,74.3,29.65,South,169,10.0,15.0,65,0.00,,,0.00,37,Wunderground v.1.15,2013-08-27 00:19:00,
2013-08-26 19:24:00,87.2,74.0,29.64,South,172,14.0,16.0,65,0.00,,,0.00,33,Wunderground v.1.15,2013-08-27 00:24:00,
2013-08-26 19:29:00,86.8,73.6,29.64,South,171,13.0,17.0,65,0.00,,,0.00,32,Wunderground v.1.15,2013-08-27 00:29:00,
2013-08-26 19:34:00,86.7,73.5,29.64,South,178,11.0,17.0,65,0.00,,,0.00,28,Wunderground v.1.15,2013-08-27 00:34:00,
2013-08-26 19:39:00,86.4,73.2,29.64,South,175,9.0,17.0,65,0.00,,,0.00,26,Wunderground v.1.15,2013-08-27 00:39:00,
2013-08-26 19:44:00,86.1,73.0,29.64,South,175,8.0,13.0,65,0.00,,,0.00,23,Wunderground v.1.15,2013-08-27 00:44:00,
2013-08-26 19:49:00,85.7,73.0,29.64,South,179,8.0,17.0,66,0.00,,,0.00,21,Wunderground v.1.15,2013-08-27 00:49:00,
2013-08-26 19:54:00,85.1,73.3,29.64,South,177,10.0,13.0,68,0.00,,,0.00,18,Wunderground v.1.15,2013-08-27 00:54:00,
2013-08-26 19:59:00,84.7,73.4,29.64,South,171,8.0,13.0,69,0.00,,,0.00,14,Wunderground v.1.15,2013-08-27 00:59:00,
2013-08-26 20:04:00,84.4,73.5,29.64,South,172,10.0,14.0,70,0.00,,,0.00,11,Wunderground v.1.15,2013-08-27 01:04:00,
2013-08-26 20:09:00,84.0,73.6,29.64,South,169,9.0,14.0,71,0.00,,,0.00,7,Wunderground v.1.15,2013-08-27 01:09:00,
2013-08-26 20:14:00,83.7,73.7,29.64,South,178,8.0,12.0,72,0.00,,,0.00,5,Wunderground v.1.15,2013-08-27 01:14:00,
2013-08-26 20:19:00,83.4,73.4,29.63,South,171,11.0,14.0,72,0.00,,,0.00,0,Wunderground v.1.15,2013-08-27 01:19:00,
2013-08-26 20:24:00,83.2,73.6,29.63,South,169,10.0,17.0,73,0.00,,,0.00,0,Wunderground v.1.15,2013-08-27 01:24:00,
2013-08-26 20:29:00,83.2,73.2,29.64,South,170,13.0,17.0,72,0.00,,,0.00,0,Wunderground v.1.15,2013-08-27 01:29:00,
2013-08-26 20:34:00,83.1,73.1,29.63,South,178,14.0,16.0,72,0.00,,,0.00,0,Wunderground v.1.15,2013-08-27 01:34:00,
2013-08-26 20:39:00,82.9,72.9,29.63,South,170,12.0,17.0,72,0.00,,,0.00,0,Wunderground v.1.15,2013-08-27 01:39:00,
2013-08-26 20:44:00,82.9,72.9,29.63,South,169,11.0,16.0,72,0.00,,,0.00,0,Wunderground v.1.15,2013-08-27 01:44:00,
2013-08-26 20:49:00,82.8,72.8,29.64,South,174,8.0,16.0,72,0.00,,,0.00,0,Wunderground v.1.15,2013-08-27 01:49:00,
2013-08-26 20:54:00,82.7,72.7,29.64,SSW,193,11.0,16.0,72,0.00,,,0.00,0,Wunderground v.1.15,2013-08-27 01:54:00,
2013-08-26 20:59:00,82.7,72.3,29.63,South,175,12.0,19.0,71,0.00,,,0.00,0,Wunderground v.1.15,2013-08-27 01:59:00,
2013-08-26 21:04:00,82.6,72.2,29.64,SSE,164,11.0,17.0,71,0.00,,,0.00,0,Wunderground v.1.15,2013-08-27 02:04:00,
2013-08-26 21:09:00,82.5,72.1,29.64,South,169,10.0,18.0,71,0.00,,,0.00,0,Wunderground v.1.15,2013-08-27 02:09:00,
2013-08-26 21:14:00,82.4,72.0,29.63,South,171,16.0,17.0,71,0.00,,,0.00,0,Wunderground v.1.15,2013-08-27 02:14:00,
2013-08-26 21:19:00,82.4,72.0,29.63,South,178,13.0,19.0,71,0.00,,,0.00,0,Wunderground v.1.15,2013-08-27 02:19:00,
2013-08-26 21:24:00,82.2,71.9,29.63,South,186,16.0,18.0,71,0.00,,,0.00,0,Wunderground v.1.15,2013-08-27 02:24:00,
2013-08-26 21:29:00,82.0,71.7,29.64,South,177,12.0,18.0,71,0.00,,,0.00,0,Wunderground v.1.15,2013-08-27 02:29:00,
2013-08-26 21:34:00,81.9,71.6,29.64,South,187,12.0,18.0,71,0.00,,,0.00,0,Wunderground v.1.15,2013-08-27 02:34:00,
2013-08-26 21:39:00,81.7,71.8,29.64,SSW,195,13.0,18.0,72,0.00,,,0.00,0,Wunderground v.1.15,2013-08-27 02:39:00,
2013-08-26 21:44:00,81.6,71.3,29.64,South,185,10.0,19.0,71,0.00,,,0.00,0,Wunderground v.1.15,2013-08-27 02:44:00,
2013-08-26 21:49:00,81.5,71.2,29.64,SSW,194,13.0,19.0,71,0.00,,,0.00,0,Wunderground v.1.15,2013-08-27 02:49:00,
2013-08-26 21:54:00,81.3,71.0,29.64,SSW,205,11.0,17.0,71,0.00,,,0.00,0,Wunderground v.1.15,2013-08-27 02:54:00,
2013-08-26 21:59:00,81.2,71.3,29.64,South,182,12.0,18.0,72,0.00,,,0.00,0,Wunderground v.1.15,2013-08-27 02:59:00,
2013-08-26 22:04:00,81.1,70.8,29.64,South,180,12.0,16.0,71,0.00,,,0.00,0,Wunderground v.1.15,2013-08-27 03:04:00,
2013-08-26 22:09:00,80.9,71.0,29.64,South,188,10.0,16.0,72,0.00,,,0.00,0,Wunderground v.1.15,2013-08-27 03:09:00,
2013-08-26 22:14:00,80.7,70.8,29.64,SSW,194,9.0,16.0,72,0.00,,,0.00,0,Wunderground v.1.15,2013-08-27 03:14:00,
2013-08-26 22:19:00,80.6,70.3,29.64,South,184,11.0,17.0,71,0.00,,,0.00,0,Wunderground v.1.15,2013-08-27 03:19:00,
2013-08-26 22:24:00,80.6,70.3,29.64,South,187,12.0,20.0,71,0.00,,,0.00,0,Wunderground v.1.15,2013-08-27 03:24:00,
2013-08-26 22:29:00,80.5,70.2,29.64,SSW,194,10.0,20.0,71,0.00,,,0.00,0,Wunderground v.1.15,2013-08-27 03:29:00,
2013-08-26 22:34:00,80.5,70.2,29.64,South,180,12.0,18.0,71,0.00,,,0.00,0,Wunderground v.1.15,2013-08-27 03:34:00,
2013-08-26 22:39:00,80.4,69.7,29.64,South,190,13.0,18.0,70,0.00,,,0.00,0,Wunderground v.1.15,2013-08-27 03:39:00,
2013-08-26 22:44:00,80.6,69.5,29.64,South,184,13.0,15.0,69,0.00,,,0.00,0,Wunderground v.1.15,2013-08-27 03:44:00,
2013-08-26 22:49:00,80.6,69.5,29.64,SSW,203,13.0,18.0,69,0.00,,,0.00,0,Wunderground v.1.15,2013-08-27 03:49:00,
2013-08-26 22:54:00,80.6,69.1,29.65,SSW,192,14.0,17.0,68,0.00,,,0.00,0,Wunderground v.1.15,2013-08-27 03:54:00,
2013-08-26 22:59:00,80.8,68.8,29.65,SSW,202,13.0,18.0,67,0.00,,,0.00,0,Wunderground v.1.15,2013-08-27 03:59:00,
2013-08-26 23:01:00,80.9,68.9,29.65,SSW,204,11.0,16.0,67,0.00,,,0.00,0,Wunderground v.1.15,2013-08-27 04:01:00,
2013-08-26 23:06:00,81.0,68.6,29.65,SSW,198,12.0,17.0,66,0.00,,,0.00,0,Wunderground v.1.15,2013-08-27 04:06:00,
2013-08-26 23:11:00,81.0,68.6,29.65,SSW,203,9.0,15.0,66,0.00,,,0.00,0,Wunderground v.1.15,2013-08-27 04:11:00,
2013-08-26 23:16:00,81.1,68.2,29.65,SSW,209,10.0,15.0,65,0.00,,,0.00,0,Wunderground v.1.15,2013-08-27 04:16:00,
2013-08-26 23:21:00,81.0,68.1,29.65,SSW,196,14.0,14.0,65,0.00,,,0.00,0,Wunderground v.1.15,2013-08-27 04:21:00,
2013-08-26 23:26:00,81.1,67.8,29.65,South,182,15.0,17.0,64,0.00,,,0.00,0,Wunderground v.1.15,2013-08-27 04:26:00,
2013-08-26 23:31:00,81.0,67.7,29.65,SSW,196,12.0,22.0,64,0.00,,,0.00,0,Wunderground v.1.15,2013-08-27 04:31:00,
2013-08-26 23:36:00,81.1,67.3,29.65,SW,224,14.0,22.0,63,0.00,,,0.00,0,Wunderground v.1.15,2013-08-27 04:36:00,
2013-08-26 23:41:00,81.0,67.2,29.66,SSW,200,12.0,16.0,63,0.00,,,0.00,0,Wunderground v.1.15,2013-08-27 04:41:00,
2013-08-26 23:46:00,80.8,67.0,29.65,SSW,209,9.0,17.0,63,0.00,,,0.00,0,Wunderground v.1.15,2013-08-27 04:46:00,
2013-08-26 23:51:00,80.7,66.9,29.65,SW,215,14.0,17.0,63,0.00,,,0.00,0,Wunderground v.1.15,2013-08-27 04:51:00,
2013-08-26 23:56:00,80.5,67.2,29.66,SSW,196,13.0,17.0,64,0.00,,,0.00,0,Wunderground v.1.15,2013-08-27 04:56:00,